This is the latest recevied weather packets stored in our database for station/object KN6DHD. If no packets are shown the sender has not sent any weather packets the latest 10 day(s).
| Time | Temp. | Humidity | Pressure | Rain* | Wind** | Luminosity | Snow |
|---|---|---|---|---|---|---|---|
| 1777422873 | 24.44° C | 43% | 1017.7 hPa | 0 mm | - | 53 W/m² | - |
| 1777422569 | 25° C | 42% | 1017.8 hPa | 0 mm | - | 65 W/m² | - |
| 1777422265 | 25° C | 43% | 1017.7 hPa | 0 mm | - | 262 W/m² | - |
| 1777421965 | 24.44° C | 44% | 1017.8 hPa | 0 mm | - | 294 W/m² | - |
| 1777421660 | 23.89° C | 44% | 1018.1 hPa | 0 mm | - | 293 W/m² | - |
| 1777421355 | 23.89° C | 45% | 1017.6 hPa | 0 mm | - | 54 W/m² | - |
| 1777421052 | 24.44° C | 45% | 1017.8 hPa | 0 mm | - | 54 W/m² | - |
| 1777420749 | 24.44° C | 44% | 1017.8 hPa | 0 mm | - | 56 W/m² | - |
| 1777420445 | 23.89° C | 45% | 1018 hPa | 0 mm | - | 70 W/m² | - |
| 1777420142 | 25° C | 44% | 1018.1 hPa | 0 mm | - | 70 W/m² | - |
| 1777419837 | 25° C | 45% | 1018.1 hPa | 0 mm | - | 101 W/m² | - |
| 1777419535 | 26.11° C | 43% | 1018.1 hPa | 0 mm | - | 81 W/m² | - |
| 1777419234 | 26.11° C | 41% | 1018 hPa | 0 mm | - | 448 W/m² | - |
| 1777418931 | 25° C | 43% | 1018 hPa | 0 mm | - | 470 W/m² | - |
| 1777418626 | 25° C | 44% | 1018.2 hPa | 0 mm | - | 454 W/m² | - |
| 1777418322 | 25° C | 45% | 1018.2 hPa | 0 mm | - | 125 W/m² | - |
| 1777418019 | 25.56° C | 43% | 1018.2 hPa | 0 mm | - | 147 W/m² | - |
| 1777417714 | 25° C | 44% | 1018.1 hPa | 0 mm | - | 241 W/m² | - |
| 1777417410 | 25.56° C | 44% | 1018.2 hPa | 0 mm | - | 567 W/m² | - |
| 1777417106 | 26.11° C | 43% | 1018.1 hPa | 0 mm | - | 557 W/m² | - |
| 1777416802 | 25.56° C | 44% | 1018.2 hPa | 0 mm | - | 534 W/m² | - |
| 1777416498 | 23.89° C | 46% | 1018.3 hPa | 0 mm | - | 528 W/m² | - |
| 1777416194 | 23.89° C | 47% | 1018.4 hPa | 0 mm | - | 494 W/m² | - |
| 1777415888 | 25° C | 45% | 1018.3 hPa | 0 mm | - | 449 W/m² | - |
| 1777415584 | 25° C | 44% | 1018.3 hPa | 0 mm | - | 602 W/m² | - |
* Rain latest hour (hover to see other rain measurements)
** Current wind speed in m/s (hover to see current wind gust speed)